This is the latest recevied weather packets stored in our database for station/object PR2KO-13. If no packets are shown the sender has not sent any weather packets the latest 10 day(s).
| Time | Temp. | Humidity | Pressure | Rain* | Wind** | Luminosity | Snow |
|---|---|---|---|---|---|---|---|
| 1788150651 | 67° F | 88% | 764.2 mmHg | - | - | - | - |
| 1788149751 | 68° F | 88% | 764.4 mmHg | - | - | - | - |
| 1788148851 | 68° F | 88% | 764.8 mmHg | - | - | - | - |
| 1788147952 | 68° F | 89% | 765.1 mmHg | - | - | - | - |
| 1788147051 | 68° F | 89% | 765.4 mmHg | - | - | - | - |
| 1788146151 | 68° F | 90% | 765.5 mmHg | - | - | - | - |
| 1788145252 | 68° F | 91% | 765.4 mmHg | - | - | - | - |
| 1788144351 | 68° F | 90% | 765.3 mmHg | - | - | - | - |
| 1788143452 | 68° F | 89% | 765.1 mmHg | - | - | - | - |
| 1788142551 | 68° F | 90% | 764.8 mmHg | - | - | - | - |
| 1788141653 | 68° F | 89% | 764.8 mmHg | - | - | - | - |
| 1788140752 | 68° F | 88% | 765.1 mmHg | - | - | - | - |
| 1788139854 | 68° F | 88% | 765.4 mmHg | - | - | - | - |
| 1788138952 | 68° F | 87% | 765.3 mmHg | - | - | - | - |
| 1788138052 | 68° F | 86% | 765.4 mmHg | - | - | - | - |
| 1788137151 | 68° F | 86% | 765.4 mmHg | - | - | - | - |
| 1788136251 | 69° F | 86% | 765.7 mmHg | - | - | - | - |
| 1788135352 | 68° F | 88% | 765.5 mmHg | - | - | - | - |
| 1788134451 | 67° F | 91% | 765.8 mmHg | - | - | - | - |
| 1788133552 | 66° F | 93% | 765.8 mmHg | - | - | - | - |
| 1788132651 | 68° F | 90% | 766 mmHg | - | - | - | - |
| 1788131753 | 68° F | 90% | 765.3 mmHg | - | - | - | - |
| 1788130852 | 68° F | 89% | 765.1 mmHg | - | - | - | - |
| 1788129951 | 68° F | 88% | 764.9 mmHg | - | - | - | - |
| 1788129052 | 68° F | 86% | 764.6 mmHg | - | - | - | - |
* Rain since midnight (hover to see other rain measurements)
** Current wind speed in m/s (hover to see current wind gust speed)